Location: Caltech
(34.1382°N, 118.1253°W)
Time: 18:14:11
(UTC-08:00)

Cosmos 1125 Rocket - Visible Passes

Search period start: 18 January 2017 00:00
Search period end: 28 January 2017 00:00
Orbit: 758 x 780 km, 74.0° (Epoch: 18 January)

Date Brightness Start Highest point End Pass type
(mag) Time Alt. Az. Time Alt. Az. Time Alt. Az.
18 Jan 7.1 06:33:12 10° ESE 06:34:10 10° E 06:35:08 10° E visible
18 Jan 4.0 18:42:19 10° NNW 18:47:27 61° WSW 18:52:32 10° S visible
19 Jan 3.4 18:05:34 10° NNW 18:10:47 75° ENE 18:15:57 10° SSE visible
20 Jan 3.9 17:29:06 10° N 17:34:01 41° ENE 17:38:53 10° SE visible
20 Jan 6.2 19:12:12 10° NW 19:15:41 18° W 19:19:10 10° SW visible
21 Jan 6.5 06:22:01 10° SE 06:25:47 20° E 06:29:31 10° NE visible
21 Jan 5.3 18:34:35 10° NW 18:39:12 33° W 18:43:48 10° SSW visible
22 Jan 7.2 05:48:26 10° ESE 05:49:22 10° E 05:50:18 10° E visible
22 Jan 4.1 17:57:31 10° NNW 18:02:38 61° WSW 18:07:43 10° S visible
24 Jan 5.4 06:12:42 10° SSE 06:17:28 36° E 06:22:13 10° NE visible
24 Jan 6.5 18:27:23 10° NW 18:30:52 18° W 18:34:21 10° SW visible
25 Jan 6.4 05:37:13 10° SE 05:40:58 20° E 05:44:42 10° NE visible
25 Jan 5.5 17:49:46 10° NW 17:54:23 33° W 17:59:00 10° SSW visible
26 Jan 7.0 05:03:39 10° ESE 05:04:33 10° E 05:05:27 10° E visible
27 Jan 4.0 06:04:02 10° S 06:09:14 65° ESE 06:14:27 10° NNE visible
